This demonstration page uses our WeatherBlox Daily Observations layout. Learn more.

Hourly Observations for May 18, 2019

Temp ( °F °C ) Dew Point ( °F °C ) Humidity (%) Winds ( mph kmh ) Pressure ( in mb ) Visibility ( mi km ) Precip ( " mm )
12:15 am 00:15 Mostly Cloudy 72 22 64 18 78 78 S 6 9 29.91 1013 10 16.09344 0 0
12:35 am 00:35 Partly Cloudy 72 22 64 18 78 78 S 3 6 29.91 1013 10 16.09344 0 0
12:55 am 00:55 Clear 73 23 64 18 74 74 Calm 29.91 1013 10 16.09344 0 0
1:15 am 01:15 Clear 70 21 64 18 83 83 Calm 29.88 1012 10 16.09344 0 0
1:35 am 01:35 Clear 70 21 64 18 83 83 Calm 29.88 1012 10 16.09344 0 0
1:55 am 01:55 Clear 64 18 64 18 100 100 Calm 29.88 1012 10 16.09344 0 0
2:15 am 02:15 Clear 64 18 63 17 94 94 Calm 29.88 1012 10 16.09344 0 0
2:35 am 02:35 Clear 64 18 64 18 100 100 Calm 29.88 1012 10 16.09344 0 0
2:55 am 02:55 Clear 68 20 64 18 88 88 Calm 29.88 1012 10 16.09344 0 0
3:15 am 03:15 Clear 64 18 64 18 100 100 Calm 29.88 1012 10 16.09344 0 0
3:35 am 03:35 Clear 68 20 64 18 88 88 Calm 29.91 1013 10 16.09344 0 0
3:55 am 03:55 Clear 68 20 63 17 83 83 Calm 29.91 1013 10 16.09344 0 0
4:15 am 04:15 Clear 68 20 63 17 83 83 Calm 29.91 1013 10 16.09344 0 0
4:35 am 04:35 Clear 70 21 64 18 83 83 Calm 29.91 1013 10 16.09344 0 0
4:55 am 04:55 Partly Cloudy 70 21 64 18 83 83 Calm 29.91 1013 10 16.09344 0 0
5:15 am 05:15 Partly Cloudy 72 22 64 18 78 78 Calm 29.91 1013 10 16.09344 0 0
5:35 am 05:35 Partly Cloudy 66 19 64 18 94 94 Calm 29.94 1014 10 16.09344 0 0
5:55 am 05:55 Partly Cloudy 66 19 63 17 88 88 Calm 29.94 1014 10 16.09344 0 0
6:15 am 06:15 Mostly Cloudy 64 18 63 17 94 94 NE 3 6 29.94 1014 10 16.09344 0 0
6:35 am 06:35 Cloudy 64 18 64 18 100 100 Calm 29.94 1014 10 16.09344 0 0
6:55 am 06:55 Cloudy 66 19 64 18 94 94 Calm 29.97 1015 10 16.09344 0 0
7:10 am 07:10 Cloudy 68 20 64 18 88 88 N 3 6 29.97 1015 10 16.09344 0 0
7:35 am 07:35 Partly Cloudy 68 20 64 18 88 88 Calm 29.97 1015 10 16.09344 0 0
7:55 am 07:55 Partly Cloudy 72 22 66 19 83 83 N 3 6 30 1016 10 16.09344 0 0
8:15 am 08:15 Partly Cloudy 72 22 66 19 83 83 Calm 30 1016 10 16.09344 0 0
8:35 am 08:35 Sunny 72 22 66 19 83 83 NE 3 6 30 1016 10 16.09344 0 0
8:55 am 08:55 Sunny 72 22 66 19 83 83 Calm 30 1016 10 16.09344 0 0
9:15 am 09:15 Sunny 72 22 66 19 83 83 N 5 7 30.03 1017 10 16.09344 0 0
9:35 am 09:35 Sunny 73 23 68 20 83 83 N 6 9 30.03 1017 10 16.09344 0 0
9:55 am 09:55 Sunny 73 23 68 20 83 83 N 6 9 30.03 1017 10 16.09344 0 0
10:15 am 10:15 Partly Cloudy 73 23 68 20 83 83 N 5 7 30.03 1017 10 16.09344 0 0
10:30 am 10:30 Mostly Cloudy 73 23 68 20 83 83 Calm 30.03 1017 10 16.09344 0 0
10:55 am 10:55 Cloudy 75 24 68 20 78 78 Calm 30.03 1017 10 16.09344 0 0
11:15 am 11:15 Partly Cloudy 75 24 68 20 78 78 Calm 30.03 1017 10 16.09344 0 0
11:35 am 11:35 Partly Cloudy 77 25 68 20 74 74 NW 5 7 30.03 1017 10 16.09344 0 0
11:55 am 11:55 Mostly Cloudy 77 25 68 20 74 74 Calm 30.03 1017 10 16.09344 0 0
12:15 pm 12:15 Cloudy 79 26 68 20 70 70 SSW 5 7 30.03 1017 10 16.09344 0 0
12:35 pm 12:35 Mostly Cloudy 79 26 68 20 70 70 Calm 30.03 1017 10 16.09344 0 0
12:55 pm 12:55 Mostly Cloudy 81 27 68 20 66 66 Calm 30.03 1017 10 16.09344 0 0
1:15 pm 13:15 Mostly Cloudy 81 27 68 20 66 66 WNW 3 6 30.03 1017 10 16.09344 0 0
1:35 pm 13:35 Mostly Cloudy 82 28 68 20 62 62 Calm 30 1016 10 16.09344 0 0
1:55 pm 13:55 Mostly Cloudy 81 27 68 20 66 66 S 7 11 30 1016 10 16.09344 0 0
2:15 pm 14:15 Cloudy 82 28 68 20 62 62 SSE 6 9 30 1016 10 16.09344 0 0
2:35 pm 14:35 Cloudy 82 28 68 20 62 62 Calm 30 1016 10 16.09344 0 0
2:55 pm 14:55 Cloudy 82 28 68 20 62 62 SW 3 6 29.97 1015 10 16.09344 0 0
3:15 pm 15:15 Partly Cloudy 82 28 68 20 62 62 S 5 7 29.97 1015 10 16.09344 0 0
3:35 pm 15:35 Sunny 86 30 68 20 55 55 WSW 6 9 29.94 1014 10 16.09344 0 0
3:55 pm 15:55 Partly Cloudy 86 30 70 21 59 59 Calm 29.94 1014 10 16.09344 0 0
4:15 pm 16:15 Partly Cloudy 86 30 68 20 55 55 S 3 6 29.94 1014 10 16.09344 0 0
4:35 pm 16:35 Sunny 86 30 70 21 59 59 W 6 9 29.94 1014 10 16.09344 0 0
4:55 pm 16:55 Sunny with Nearby Thunderstorms 86 30 68 20 55 55 Calm 29.91 1013 10 16.09344 0 0
5:15 pm 17:15 Sunny 86 30 68 20 55 55 SW 6 9 29.94 1014 10 16.09344 0 0
5:35 pm 17:35 Partly Cloudy 84 29 68 20 58 58 SSW 5 7 29.97 1015 10 16.09344 0 0
5:55 pm 17:55 Partly Cloudy 84 29 68 20 58 58 Calm 29.97 1015 10 16.09344 0 0
6:15 pm 18:15 Sunny 86 30 68 20 55 55 S 8 13 29.94 1014 10 16.09344 0 0
6:35 pm 18:35 Sunny 86 30 70 21 59 59 SW 7 11 29.91 1013 10 16.09344 0 0
6:55 pm 18:55 Sunny 84 29 68 20 58 58 S 3 6 29.97 1015 10 16.09344 0 0
7:15 pm 19:15 Sunny 84 29 68 20 58 58 S 5 7 29.97 1015 10 16.09344 0 0
7:35 pm 19:35 Sunny 82 28 70 21 66 66 S 12 19 29.97 1015 10 16.09344 0 0
7:55 pm 19:55 Sunny with Nearby Thunderstorms 82 28 70 21 66 66 S 6 9 29.97 1015 10 16.09344 0 0
8:15 pm 20:15 Sunny 81 27 70 21 70 70 SW 5 7 29.97 1015 10 16.09344 0 0
8:35 pm 20:35 Clear 81 27 70 21 70 70 SSE 6 9 30 1016 10 16.09344 0 0
8:55 pm 20:55 Clear 77 25 70 21 79 79 SSE 6 9 30 1016 10 16.09344 0 0
9:15 pm 21:15 Clear 77 25 70 21 79 79 S 6 9 30 1016 10 16.09344 0 0
9:35 pm 21:35 Clear 75 24 70 21 83 83 S 5 7 30.03 1017 10 16.09344 0 0
9:55 pm 21:55 Clear 75 24 70 21 83 83 S 5 7 30.03 1017 10 16.09344 0 0
10:15 pm 22:15 Clear 73 23 70 21 89 89 S 3 6 30.03 1017 10 16.09344 0 0
10:35 pm 22:35 Clear 72 22 70 21 94 94 SSW 6 9 30.03 1017 10 16.09344 0 0
10:55 pm 22:55 Clear 72 22 70 21 94 94 SSW 5 7 30.03 1017 10 16.09344 0 0
11:15 pm 23:15 Clear 72 22 68 20 88 88 S 6 9 30.03 1017 10 16.09344 0 0
11:35 pm 23:35 Clear 70 21 68 20 94 94 S 3 6 30.03 1017 10 16.09344 0 0
11:55 pm 23:55 Clear 70 21 68 20 94 94 S 3 6 30.03 1017 10 16.09344 0 0

Powered by AerisWeather